This is the latest recevied weather packets stored in our database for station/object KB3HLL. If no packets are shown the sender has not sent any weather packets the latest 10 day(s).
| Time | Temp. | Humidity | Pressure | Rain* | Wind** | Luminosity | Snow |
|---|---|---|---|---|---|---|---|
| 1777805777 | 0° C | 91% | 1014.4 hPa | 0 mm | - | 38 W/m² | - |
| 1777805478 | 0° C | 90% | 1014.3 hPa | 0 mm | - | 35 W/m² | - |
| 1777805178 | 0° C | 91% | 1014.2 hPa | 0 mm | - | 33 W/m² | - |
| 1777804878 | 0.56° C | 91% | 1014.2 hPa | 0 mm | - | 30 W/m² | - |
| 1777804578 | 0.56° C | 90% | 1014.1 hPa | 0 mm | - | 23 W/m² | - |
| 1777804277 | 0.56° C | 90% | 1014.1 hPa | 0 mm | - | 19 W/m² | - |
| 1777803978 | 0.56° C | 90% | 1014.1 hPa | 0 mm | - | 15 W/m² | - |
| 1777803677 | 0.56° C | 90% | 1014.1 hPa | 0 mm | - | 10 W/m² | - |
| 1777803378 | 0.56° C | 90% | 1014 hPa | 0 mm | - | 7 W/m² | - |
| 1777803077 | 0.56° C | 90% | 1013.9 hPa | 0 mm | - | 5 W/m² | - |
| 1777802777 | 0.56° C | 90% | 1013.9 hPa | 0 mm | - | 3 W/m² | - |
| 1777802477 | 0.56° C | 90% | 1013.9 hPa | 0 mm | - | 1 W/m² | - |
| 1777802178 | 0.56° C | 89% | 1013.8 hPa | 0 mm | - | 1 W/m² | - |
| 1777801877 | 0.56° C | 89% | 1013.8 hPa | 0 mm | - | 1 W/m² | - |
| 1777801578 | 0.56° C | 89% | 1013.8 hPa | 0 mm | - | 0 W/m² | - |
| 1777801277 | 0.56° C | 89% | 1013.7 hPa | 0 mm | - | 0 W/m² | - |
| 1777800978 | 0.56° C | 89% | 1013.7 hPa | 0 mm | - | 0 W/m² | - |
| 1777800677 | 0.56° C | 89% | 1013.8 hPa | 0 mm | - | 0 W/m² | - |
| 1777800377 | 0.56° C | 89% | 1013.6 hPa | 0 mm | - | 0 W/m² | - |
| 1777800077 | 0.56° C | 88% | 1013.7 hPa | 0 mm | - | 0 W/m² | - |
| 1777799778 | 0.56° C | 88% | 1013.7 hPa | 0 mm | - | 0 W/m² | - |
| 1777799478 | 0.56° C | 87% | 1013.7 hPa | 0 mm | - | 0 W/m² | - |
| 1777799177 | 0.56° C | 87% | 1013.7 hPa | 0 mm | - | 0 W/m² | - |
| 1777798877 | 0.56° C | 87% | 1013.7 hPa | 0 mm | - | 0 W/m² | - |
| 1777798579 | 0.56° C | 87% | 1013.7 hPa | 0 mm | - | 0 W/m² | - |
* Rain latest hour (hover to see other rain measurements)
** Current wind speed in m/s (hover to see current wind gust speed)